Powrót do katalogu

COSMOS 2251 DEB

AktywnyLEO
NORAD 34571·DEBRIS·🇷🇺 Russia

Wystrzelony Jun 16, 1993 z Plesetsk Cosmodrome

Loading…

Następne Przeloty (najbliższe 24 godziny)

TLE

ŚwieżeSource: Space-Track

Epoka: Sep 14, 2026, 08:22 UTC

1 34571U 93036VH  26257.34899273  .00004192  00000-0  99281-3 0  9996
2 34571  74.0394  23.7697 0063295 352.7251   7.2985 14.53146606912923

Śledź COSMOS 2251 DEB w czasie rzeczywistym z AllMySat

Download on the App Store